STARLINK-1553, 46348

Orbit data source: Space-Track

STARLINK-1553, 46348 is a payload satellite owned by SpaceX/Seattle (US) in LEO that was launched on Thu, 03 Sep 2020 UTC via an FALCON 9 launch vehicle from the Air Force Eastern Test Range (AFETR). Payload-class satellites include a variety of spacecraft equipped with specific instruments for various scientific and technological missions. These include communications satellites like Starlink; space stations such as the ISS; scientific satellites like the Hubble; Earth observation satellites from companies like Planet Labs, Umbra, and HawkEye 360; GPS; miniature CubeSats for education and research; and military/defense satellites.

Loading next visibility...
Identifier
46348, 2020-062Z
Orbit
LEO
Country
Flag of USUS
Related business
Manufacturer
SpaceX/Seattle
Mission
Partially operational Commercial Communications
Bus & Motor
STARLINK, Unknown motor
Mass
260 kg wet, ~248 kg dry
Launch date (UTC)
2020-09-03 (6 years ago)
Launch vehicle
FALCON 9
Launch site
Air Force Eastern Test Range (AFETR)
Object type
Payload
Rocket body
Debris
Shape & HBR
Box + 1 Pan, 10.1 m
Radar Cross Section
13.562 m², Large (>1 m²)

Expand to show TLE details & history
Last TLE update: 16 hours ago

TLE from 16 hours ago
0 STARLINK-1553
1 46348U 20062Z   26166.41999221  .00021783  00000-0  51372-3 0  9995
2 46348  53.0341 205.4181 0003314  67.6491 292.4864 15.41853012320345
Epoch: 2026-06-15T10:04Z
TLE epoch observation values (Epoch: 2026-06-15T10:04:47.326Z)
Latitude
-0.00006°
Longitude
150.51423°
Altitude
440.668 km
Speed
7.649 km/s
True Right ascension
13h 41m 40s
True Declination
0° 00' 00"
Sunlit
Object was in full shadow at epoch
Visualization orbit readout
Latitude
Unknown
Longitude
Unknown
Altitude
Unknown
Speed
Unknown
Apparent Right ascension
Unknown
Apparent Declination
Unknown
Sunlit
N/A
Visualization observer readout
Local Sidereal Time
12:21:32
Azimuth
Unknown
Elevation
Unknown
Doppler factor
Unknown
Orbital elements
Apogee altitude
443.179 km
Perigee altitude
438.659 km
Semi-major axis
6,819.056 km
Eccentricity
0.00033
Inclination
53.0341°
RAAN
205.4181°
Arg. of periapsis
67.6491°
True anomaly
292.45131°
Mean anomaly
292.4864°
Eccentric anomaly
292.46885°
Mean motion
3.8544 °/min
Orbital period
93.4 mins
BSTAR
0.00051372
Loading maneuver chart data...
Computing Atmospheric mass density...

Documentation

Showing up to 5 results
|